Time,TemperatureF,DewpointF,PressureIn,WindDirection,WindDirectionDegrees,WindSpeedMPH,WindSpeedGustMPH,Humidity,HourlyPrecipIn,Conditions,Clouds,dailyrainin,SoftwareType,DateUTC
2013-07-19 00:00:00,72.7,70.9,29.81,SW,228,4.0,4.0,94,0.00,,,0.15,Wunderground v.1.13,2013-07-19 04:00:00,
2013-07-19 00:30:00,72.5,70.7,29.80,SW,216,3.0,3.0,94,0.00,,,0.15,Wunderground v.1.13,2013-07-19 04:30:00,
2013-07-19 01:00:00,72.0,70.5,29.78,SSW,202,2.0,12.0,95,0.00,,,0.00,Wunderground v.1.13,2013-07-19 05:00:00,
2013-07-19 01:30:00,72.0,70.5,29.77,SSW,197,2.0,12.0,95,0.00,,,0.00,Wunderground v.1.13,2013-07-19 05:30:00,
2013-07-19 02:00:00,72.1,70.6,29.76,SSW,197,2.0,2.0,95,0.00,,,0.00,Wunderground v.1.13,2013-07-19 06:00:00,
2013-07-19 02:30:00,72.1,70.6,29.75,SSW,198,2.0,12.0,95,0.00,,,0.00,Wunderground v.1.13,2013-07-19 06:30:00,
2013-07-19 03:00:00,72.8,71.3,29.72,SSW,199,4.0,4.0,95,0.00,,,0.00,Wunderground v.1.13,2013-07-19 07:00:00,
2013-07-19 03:30:00,74.7,72.5,29.70,SSW,208,5.0,5.0,93,0.00,,,0.00,Wunderground v.1.13,2013-07-19 07:30:00,
2013-07-19 04:00:00,75.3,72.5,29.69,SW,220,4.0,4.0,91,0.00,,,0.00,Wunderground v.1.13,2013-07-19 08:00:00,
2013-07-19 04:30:00,75.6,72.5,29.68,SSW,193,5.0,12.0,90,0.00,,,0.00,Wunderground v.1.13,2013-07-19 08:30:00,
2013-07-19 05:00:00,76.1,72.6,29.68,SSW,204,6.0,6.0,89,0.00,,,0.00,Wunderground v.1.13,2013-07-19 09:00:00,
2013-07-19 05:30:00,76.3,72.8,29.68,SW,227,5.0,5.0,89,0.00,,,0.00,Wunderground v.1.13,2013-07-19 09:30:00,
2013-07-19 06:00:00,76.5,72.7,29.68,SW,220,6.0,6.0,88,0.00,,,0.00,Wunderground v.1.13,2013-07-19 10:00:00,
2013-07-19 06:30:00,76.7,72.5,29.68,South,188,6.0,12.0,87,0.00,,,0.00,Wunderground v.1.13,2013-07-19 10:30:00,
2013-07-19 07:00:00,76.8,72.3,29.67,SW,217,6.0,15.0,86,0.00,,,0.00,Wunderground v.1.13,2013-07-19 11:00:00,
2013-07-19 07:30:00,78.6,72.6,29.66,SW,229,7.0,12.0,82,0.00,,,0.00,Wunderground v.1.13,2013-07-19 11:30:00,
2013-07-19 08:00:00,79.0,72.7,29.67,SW,225,8.0,12.0,81,0.00,,,0.00,Wunderground v.1.13,2013-07-19 12:00:00,
2013-07-19 08:30:00,80.1,73.0,29.66,SW,225,7.0,7.0,79,0.00,,,0.00,Wunderground v.1.13,2013-07-19 12:30:00,
2013-07-19 09:00:00,82.2,73.9,29.65,SSW,208,7.0,12.0,76,0.00,,,0.00,Wunderground v.1.13,2013-07-19 13:00:00,
2013-07-19 09:30:00,82.8,73.7,29.64,SW,223,7.0,12.0,74,0.00,,,0.00,Wunderground v.1.13,2013-07-19 13:30:00,
2013-07-19 10:00:00,84.1,74.1,29.63,SSW,198,5.0,12.0,72,0.00,,,0.00,Wunderground v.1.13,2013-07-19 14:00:00,
2013-07-19 10:30:00,86.1,74.3,29.61,WSW,240,9.0,12.0,68,0.00,,,0.00,Wunderground v.1.13,2013-07-19 14:30:00,
2013-07-19 11:00:00,87.4,74.6,29.60,South,181,10.0,15.0,66,0.00,,,0.00,Wunderground v.1.13,2013-07-19 15:00:00,
2013-07-19 11:30:00,88.8,74.6,29.60,SSW,192,8.0,14.0,63,0.00,,,0.00,Wunderground v.1.13,2013-07-19 15:30:00,
2013-07-19 12:00:00,89.5,73.8,29.59,SW,220,9.0,12.0,60,0.00,,,0.00,Wunderground v.1.13,2013-07-19 16:00:00,
2013-07-19 12:30:00,90.1,72.8,29.58,SW,229,12.0,15.0,57,0.00,,,0.00,Wunderground v.1.13,2013-07-19 16:30:00,
2013-07-19 13:00:00,90.3,71.9,29.57,SW,228,12.0,15.0,55,0.00,,,0.00,Wunderground v.1.13,2013-07-19 17:00:00,
2013-07-19 13:30:00,90.7,71.8,29.57,SW,222,14.0,14.0,54,0.00,,,0.00,Wunderground v.1.13,2013-07-19 17:30:00,
2013-07-19 14:00:00,91.4,71.3,29.55,SW,225,11.0,12.0,52,0.00,,,0.00,Wunderground v.1.13,2013-07-19 18:00:00,
2013-07-19 14:30:00,91.8,69.9,29.53,WSW,244,13.0,13.0,49,0.00,,,0.00,Wunderground v.1.13,2013-07-19 18:30:00,
2013-07-19 15:00:00,92.3,71.6,29.53,South,175,9.0,24.0,51,0.00,,,0.00,Wunderground v.1.13,2013-07-19 19:00:00,
2013-07-19 15:30:00,92.1,70.2,29.50,SW,223,12.0,12.0,49,0.00,,,0.00,Wunderground v.1.13,2013-07-19 19:30:00,
2013-07-19 16:00:00,91.6,70.9,29.51,WSW,252,13.0,13.0,51,0.00,,,0.00,Wunderground v.1.13,2013-07-19 20:00:00,
2013-07-19 16:30:00,91.8,71.1,29.50,West,268,13.0,13.0,51,0.00,,,0.00,Wunderground v.1.13,2013-07-19 20:30:00,
2013-07-19 17:00:00,91.2,71.1,29.50,SW,222,12.0,12.0,52,0.00,,,0.00,Wunderground v.1.13,2013-07-19 21:00:00,
2013-07-19 17:30:00,82.8,69.4,29.51,North,11,6.0,12.0,64,0.00,,,0.00,Wunderground v.1.13,2013-07-19 21:30:00,